Location: Newark
(44.2003°N, 3.2583°E)
Time: 11:55:19
(UTC+00:00)

Explorer 7 - Pass Details

Date: 21 October 2019
Orbit: 485 x 680 km, 50.3° (Epoch: 12 November)

Event Time Altitude Azimuth Distance (km) Brightness Sun altitude
Rises 16:45:43 0° 295° (WNW) 2,602 11.1 0.6°
Reaches altitude 10° 16:47:55 10° 288° (WNW) 1,737 10.4 0.2°
Maximum altitude 16:51:39 42° 217° (SW) 767 8.2 -0.5°
Drops below altitude 10° 16:55:34 10° 146° (SE) 1,828 9.3 -1.1°
Sets 16:57:57 0° 139° (SE) 2,757 10.1 -1.6°
